Hourly Weather Godziszewo

Today, 15 May, Saturday

Time Temperature Precipitation Wind Pressure Humidity
00:00 +8°C° 0 mm 0 mps 746 mmHg 85%
01:00 +9°C° 0 mm 1 mps 746 mmHg 85%
02:00 +10°C° 0 mm 1 mps 746 mmHg 86%
03:00 +10°C° 0 mm 1 mps 746 mmHg 86%
04:00 +11°C° 0 mm 1 mps 747 mmHg 86%
05:00 +11°C° 0 mm 1 mps 747 mmHg 87%
06:00 +12°C° 0 mm 2 mps 747 mmHg 87%
07:00 +11°C° 0 mm 3 mps 747 mmHg 87%
08:00 +11°C° 0.1 mm 3 mps 747 mmHg 87%
09:00 +11°C° 0.1 mm 3 mps 748 mmHg 87%
10:00 +11°C° 0.1 mm 4 mps 748 mmHg 87%
11:00 +12°C° 0 mm 3 mps 748 mmHg 78%
12:00 +14°C° 0 mm 3 mps 748 mmHg 69%
13:00 +16°C° 0 mm 3 mps 748 mmHg 59%
14:00 +17°C° 0 mm 3 mps 748 mmHg 57%
15:00 +18°C° 0 mm 3 mps 748 mmHg 55%
16:00 +18°C° 0 mm 3 mps 748 mmHg 52%
17:00 +17°C° 0 mm 2 mps 748 mmHg 61%
18:00 +15°C° 0 mm 2 mps 748 mmHg 70%
19:00 +13°C° 0 mm 2 mps 747 mmHg 79%
20:00 +13°C° 0 mm 2 mps 748 mmHg 82%
21:00 +12°C° 0 mm 2 mps 748 mmHg 85%
22:00 +10°C° 0 mm 2 mps 748 mmHg 88%
23:00 +10°C° 0.9 mm 2 mps 747 mmHg 91%

Tomorrow, 16 May, Sunday

Time Temperature Precipitation Wind Pressure Humidity
00:00 +11°C° 0.9 mm 1 mps 747 mmHg 94%
01:00 +11°C° 0.9 mm 1 mps 747 mmHg 96%
02:00 +10°C° 0.5 mm 2 mps 747 mmHg 96%
03:00 +10°C° 0.5 mm 2 mps 747 mmHg 97%
04:00 +10°C° 0.5 mm 2 mps 747 mmHg 97%
05:00 +12°C° 0.5 mm 2 mps 747 mmHg 95%
06:00 +11°C° 0.5 mm 3 mps 747 mmHg 93%
07:00 +12°C° 0.5 mm 3 mps 747 mmHg 91%
08:00 +13°C° 0.2 mm 3 mps 747 mmHg 84%
09:00 +14°C° 0.2 mm 3 mps 747 mmHg 76%
10:00 +17°C° 0.2 mm 4 mps 747 mmHg 69%
11:00 +17°C° 0.4 mm 4 mps 747 mmHg 66%
12:00 +17°C° 0.4 mm 4 mps 746 mmHg 64%
13:00 +18°C° 0.4 mm 4 mps 746 mmHg 61%
14:00 +18°C° 0.2 mm 4 mps 746 mmHg 62%
15:00 +18°C° 0.2 mm 3 mps 746 mmHg 62%
16:00 +18°C° 0.2 mm 3 mps 746 mmHg 62%
17:00 +17°C° 0 mm 3 mps 746 mmHg 66%
18:00 +15°C° 0 mm 2 mps 746 mmHg 70%
19:00 +14°C° 0 mm 2 mps 746 mmHg 74%
20:00 +14°C° 0 mm 2 mps 746 mmHg 75%
21:00 +13°C° 0 mm 2 mps 746 mmHg 76%
22:00 +13°C° 0 mm 2 mps 746 mmHg 77%
23:00 +12°C° 0 mm 2 mps 746 mmHg 80%

Day after tomorrow, 17 May, Monday

Time Temperature Precipitation Wind Pressure Humidity
00:00 +12°C° 0 mm 2 mps 745 mmHg 82%
01:00 +10°C° 0 mm 2 mps 745 mmHg 85%
02:00 +9°C° 0 mm 2 mps 745 mmHg 87%
03:00 +9°C° 0 mm 2 mps 745 mmHg 89%
04:00 +8°C° 0 mm 2 mps 745 mmHg 91%
05:00 +10°C° 0 mm 2 mps 746 mmHg 85%
06:00 +12°C° 0 mm 3 mps 746 mmHg 80%
07:00 +13°C° 0 mm 3 mps 746 mmHg 75%
08:00 +14°C° 0.2 mm 3 mps 746 mmHg 70%
09:00 +17°C° 0.2 mm 4 mps 746 mmHg 66%
10:00 +18°C° 0.2 mm 4 mps 746 mmHg 61%
11:00 +17°C° 0.8 mm 4 mps 746 mmHg 64%
12:00 +17°C° 0.8 mm 4 mps 746 mmHg 67%
13:00 +17°C° 0.8 mm 4 mps 746 mmHg 70%
14:00 +17°C° 0.7 mm 3 mps 746 mmHg 70%
15:00 +17°C° 0.7 mm 2 mps 746 mmHg 70%
16:00 +17°C° 0.7 mm 2 mps 746 mmHg 70%
17:00 +16°C° 0.4 mm 2 mps 746 mmHg 75%
18:00 +15°C° 0.4 mm 2 mps 746 mmHg 80%
19:00 +14°C° 0.4 mm 1 mps 746 mmHg 84%
20:00 +13°C° 0 mm 1 mps 746 mmHg 86%
21:00 +13°C° 0 mm 1 mps 746 mmHg 87%
22:00 +12°C° 0 mm 1 mps 746 mmHg 89%
23:00 +12°C° 0.2 mm 2 mps 745 mmHg 90%

18 May, Tuesday

Time Temperature Precipitation Wind Pressure Humidity
00:00 +10°C° 0.2 mm 2 mps 745 mmHg 92%
01:00 +10°C° 0.2 mm 2 mps 745 mmHg 94%
02:00 +9°C° 0.2 mm 2 mps 745 mmHg 95%
03:00 +9°C° 0.2 mm 2 mps 745 mmHg 95%
04:00 +9°C° 0.2 mm 3 mps 745 mmHg 96%
05:00 +10°C° 0.1 mm 3 mps 745 mmHg 93%
06:00 +10°C° 0.1 mm 3 mps 746 mmHg 90%
07:00 +11°C° 0.1 mm 3 mps 746 mmHg 87%
08:00 +12°C° 0.3 mm 4 mps 746 mmHg 83%
09:00 +13°C° 0.3 mm 4 mps 746 mmHg 79%
10:00 +13°C° 0.3 mm 4 mps 746 mmHg 75%
11:00 +14°C° 0.5 mm 4 mps 746 mmHg 73%
12:00 +14°C° 0.5 mm 4 mps 746 mmHg 71%
13:00 +14°C° 0.5 mm 4 mps 747 mmHg 69%
14:00 +14°C° 0.5 mm 4 mps 747 mmHg 71%
15:00 +13°C° 0.5 mm 5 mps 747 mmHg 73%
16:00 +13°C° 0.5 mm 5 mps 747 mmHg 75%
17:00 +12°C° 0.1 mm 4 mps 748 mmHg 76%
18:00 +12°C° 0.1 mm 4 mps 748 mmHg 77%
19:00 +11°C° 0.1 mm 4 mps 748 mmHg 78%
20:00 +10°C° 0 mm 4 mps 748 mmHg 81%
21:00 +9°C° 0 mm 3 mps 749 mmHg 85%
22:00 +8°C° 0 mm 3 mps 749 mmHg 89%
23:00 +7°C° 0 mm 3 mps 749 mmHg 90%

19 May, Wednesday

Time Temperature Precipitation Wind Pressure Humidity
00:00 +6°C° 0 mm 4 mps 749 mmHg 91%
01:00 +6°C° 0 mm 4 mps 749 mmHg 92%
02:00 +6°C° 0 mm 4 mps 749 mmHg 92%
03:00 +6°C° 0 mm 4 mps 749 mmHg 92%
04:00 +6°C° 0 mm 5 mps 749 mmHg 92%
05:00 +7°C° 0 mm 5 mps 750 mmHg 89%
06:00 +8°C° 0 mm 6 mps 750 mmHg 86%
07:00 +9°C° 0 mm 6 mps 750 mmHg 83%
08:00 +9°C° 0 mm 6 mps 750 mmHg 78%
09:00 +10°C° 0 mm 6 mps 751 mmHg 74%
10:00 +10°C° 0 mm 6 mps 751 mmHg 70%
11:00 +11°C° 0.1 mm 6 mps 751 mmHg 67%
12:00 +13°C° 0.1 mm 6 mps 751 mmHg 64%
13:00 +13°C° 0.1 mm 5 mps 751 mmHg 62%
14:00 +13°C° 0.1 mm 5 mps 751 mmHg 61%
15:00 +13°C° 0.1 mm 5 mps 751 mmHg 61%
16:00 +13°C° 0.1 mm 5 mps 751 mmHg 60%
17:00 +12°C° 0 mm 4 mps 751 mmHg 64%
18:00 +12°C° 0 mm 4 mps 751 mmHg 67%
19:00 +11°C° 0 mm 4 mps 752 mmHg 70%
20:00 +9°C° 0 mm 3 mps 752 mmHg 75%
21:00 +8°C° 0 mm 3 mps 752 mmHg 79%
22:00 +7°C° 0 mm 3 mps 752 mmHg 84%
23:00 +7°C° 0 mm 3 mps 752 mmHg 87%

20 May, Thursday

Time Temperature Precipitation Wind Pressure Humidity
00:00 +7°C° 0 mm 3 mps 752 mmHg 90%
01:00 +5°C° 0 mm 3 mps 752 mmHg 93%
02:00 +5°C° 0 mm 4 mps 752 mmHg 93%
03:00 +5°C° 0 mm 4 mps 752 mmHg 94%
04:00 +5°C° 0 mm 4 mps 752 mmHg 94%
05:00 +6°C° 0 mm 4 mps 752 mmHg 87%
06:00 +8°C° 0 mm 5 mps 752 mmHg 81%
07:00 +10°C° 0 mm 6 mps 752 mmHg 74%
08:00 +11°C° 0 mm 6 mps 752 mmHg 67%
09:00 +13°C° 0 mm 6 mps 752 mmHg 59%
10:00 +14°C° 0 mm 6 mps 752 mmHg 52%
11:00 +14°C° 0 mm 6 mps 752 mmHg 53%
12:00 +14°C° 0 mm 5 mps 752 mmHg 54%
13:00 +14°C° 0 mm 5 mps 752 mmHg 55%
14:00 +14°C° 0.1 mm 5 mps 752 mmHg 57%
15:00 +14°C° 0.1 mm 5 mps 752 mmHg 58%
16:00 +14°C° 0.1 mm 4 mps 752 mmHg 60%
17:00 +13°C° 0.1 mm 4 mps 751 mmHg 64%
18:00 +12°C° 0.1 mm 3 mps 751 mmHg 69%
19:00 +12°C° 0.1 mm 2 mps 751 mmHg 73%
20:00 +10°C° 0 mm 2 mps 751 mmHg 76%
21:00 +9°C° 0 mm 2 mps 751 mmHg 79%
22:00 +7°C° 0 mm 2 mps 751 mmHg 83%
23:00 +7°C° 0 mm 2 mps 750 mmHg 84%
Show more